When you browse on this site, cookies collect data to enhance your experience and personalize the content and advertising you see.
Visit our Privacy Policy to learn more. By continuing to use the site, you agree to this use of cookies and data.
  • In Sweden
  • List of Countries
  • For 7 days
  • Water Temperature
  • Satellite Maps
  • Weather Map
  • Weather Widgets
  • user-avatar
    Login

    Hourly Weather Besni

    Today, 17 January, Thursday

    Time Temperature Precipitation Wind Pressure Humidity
    00:00 +1°C° 0 mm 2 mps 670 mmHg 85%
    01:00 0°C° 0 mm 3 mps 671 mmHg 82%
    02:00 -1°C° 0 mm 3 mps 671 mmHg 79%
    03:00 -2°C° 0 mm 4 mps 671 mmHg 76%
    04:00 -3°C° 0 mm 4 mps 672 mmHg 73%
    05:00 -5°C° 0 mm 5 mps 672 mmHg 69%
    06:00 -6°C° 0 mm 5 mps 673 mmHg 66%
    07:00 -6°C° 0 mm 6 mps 673 mmHg 64%
    08:00 -6°C° 0 mm 6 mps 674 mmHg 62%
    09:00 -8°C° 0 mm 7 mps 675 mmHg 60%
    10:00 -6°C° 0 mm 8 mps 675 mmHg 59%
    11:00 -5°C° 0 mm 8 mps 676 mmHg 58%
    12:00 -4°C° 0 mm 9 mps 676 mmHg 57%
    13:00 -3°C° 0 mm 9 mps 676 mmHg 57%
    14:00 -3°C° 0 mm 9 mps 677 mmHg 58%
    15:00 -3°C° 0 mm 9 mps 677 mmHg 58%
    16:00 -4°C° 0 mm 8 mps 677 mmHg 60%
    17:00 -6°C° 0 mm 7 mps 678 mmHg 62%
    18:00 -6°C° 0 mm 6 mps 678 mmHg 64%
    19:00 -6°C° 0 mm 6 mps 678 mmHg 64%
    20:00 -7°C° 0 mm 5 mps 678 mmHg 64%
    21:00 -7°C° 0 mm 5 mps 679 mmHg 64%
    22:00 -7°C° 0 mm 5 mps 679 mmHg 64%
    23:00 -8°C° 0 mm 6 mps 679 mmHg 64%

    Tomorrow, 18 January, Friday

    Time Temperature Precipitation Wind Pressure Humidity
    00:00 -8°C° 0 mm 6 mps 680 mmHg 64%
    01:00 -7°C° 0 mm 5 mps 680 mmHg 64%
    02:00 -8°C° 0 mm 5 mps 681 mmHg 65%
    03:00 -8°C° 0 mm 5 mps 681 mmHg 65%
    04:00 -8°C° 0 mm 4 mps 681 mmHg 65%
    05:00 -8°C° 0 mm 4 mps 681 mmHg 65%
    06:00 -8°C° 0 mm 4 mps 682 mmHg 64%
    07:00 -8°C° 0 mm 4 mps 682 mmHg 63%
    08:00 -8°C° 0 mm 4 mps 683 mmHg 62%
    09:00 -6°C° 0 mm 3 mps 683 mmHg 61%
    10:00 -5°C° 0 mm 3 mps 684 mmHg 60%
    11:00 -2°C° 0 mm 2 mps 684 mmHg 59%
    12:00 +1°C° 0 mm 2 mps 684 mmHg 58%
    13:00 +2°C° 0 mm 1 mps 684 mmHg 59%
    14:00 +3°C° 0 mm 1 mps 684 mmHg 60%
    15:00 +2°C° 0 mm 0 mps 684 mmHg 62%
    16:00 +1°C° 0 mm 0 mps 684 mmHg 61%
    17:00 0°C° 0 mm 1 mps 684 mmHg 61%
    18:00 -1°C° 0 mm 1 mps 683 mmHg 60%
    19:00 -1°C° 0 mm 1 mps 684 mmHg 59%
    20:00 -2°C° 0 mm 1 mps 684 mmHg 58%
    21:00 -2°C° 0 mm 1 mps 684 mmHg 57%
    22:00 -2°C° 0 mm 1 mps 685 mmHg 56%
    23:00 -2°C° 0 mm 1 mps 685 mmHg 55%

    Day after tomorrow, 19 January, Saturday

    Time Temperature Precipitation Wind Pressure Humidity
    00:00 -2°C° 0 mm 1 mps 685 mmHg 55%
    01:00 -2°C° 0 mm 1 mps 685 mmHg 54%
    02:00 -3°C° 0 mm 1 mps 685 mmHg 54%
    03:00 -3°C° 0 mm 1 mps 685 mmHg 54%
    04:00 -3°C° 0 mm 1 mps 685 mmHg 54%
    05:00 -3°C° 0 mm 1 mps 684 mmHg 54%
    06:00 -3°C° 0 mm 1 mps 684 mmHg 53%
    07:00 -2°C° 0 mm 1 mps 685 mmHg 52%
    08:00 -2°C° 0 mm 1 mps 685 mmHg 52%
    09:00 -2°C° 0 mm 1 mps 685 mmHg 51%
    10:00 0°C° 0 mm 1 mps 685 mmHg 56%
    11:00 0°C° 0 mm 0 mps 685 mmHg 61%
    12:00 +2°C° 0 mm 0 mps 685 mmHg 67%
    13:00 +2°C° 0 mm 0 mps 685 mmHg 66%
    14:00 +2°C° 0 mm 0 mps 684 mmHg 66%
    15:00 +2°C° 0 mm 0 mps 684 mmHg 65%
    16:00 +1°C° 0 mm 0 mps 683 mmHg 65%
    17:00 0°C° 0 mm 0 mps 683 mmHg 65%
    18:00 -1°C° 0 mm 1 mps 683 mmHg 65%
    19:00 -1°C° 0 mm 1 mps 683 mmHg 63%
    20:00 -1°C° 0 mm 1 mps 683 mmHg 60%
    21:00 -4°C° 0 mm 2 mps 684 mmHg 57%
    22:00 -4°C° 0 mm 2 mps 684 mmHg 54%
    23:00 -4°C° 0 mm 2 mps 684 mmHg 51%

    20 January, Sunday

    Time Temperature Precipitation Wind Pressure Humidity
    00:00 -4°C° 0 mm 2 mps 684 mmHg 48%
    01:00 -2°C° 0 mm 1 mps 684 mmHg 47%
    02:00 -2°C° 0 mm 1 mps 684 mmHg 46%
    03:00 -2°C° 0 mm 1 mps 684 mmHg 45%
    04:00 -2°C° 0 mm 1 mps 684 mmHg 45%
    05:00 -2°C° 0 mm 1 mps 684 mmHg 45%
    06:00 -2°C° 0 mm 1 mps 684 mmHg 45%
    07:00 -1°C° 0 mm 1 mps 684 mmHg 45%
    08:00 -1°C° 0 mm 1 mps 684 mmHg 45%
    09:00 0°C° 0 mm 1 mps 685 mmHg 45%
    10:00 +1°C° 0 mm 1 mps 685 mmHg 51%
    11:00 +2°C° 0 mm 1 mps 685 mmHg 56%
    12:00 +2°C° 0 mm 0 mps 685 mmHg 62%
    13:00 +2°C° 0 mm 0 mps 684 mmHg 62%
    14:00 +3°C° 0 mm 0 mps 684 mmHg 61%
    15:00 +3°C° 0 mm 0 mps 683 mmHg 61%
    16:00 +2°C° 0 mm 0 mps 683 mmHg 61%
    17:00 0°C° 0 mm 0 mps 683 mmHg 61%
    18:00 -1°C° 0 mm 0 mps 683 mmHg 61%
    19:00 0°C° 0 mm 1 mps 683 mmHg 59%
    20:00 0°C° 0 mm 1 mps 684 mmHg 58%
    21:00 0°C° 0 mm 1 mps 684 mmHg 57%
    22:00 -1°C° 0 mm 1 mps 684 mmHg 57%
    23:00 -1°C° 0 mm 1 mps 684 mmHg 57%

    21 January, Monday

    Time Temperature Precipitation Wind Pressure Humidity
    00:00 -1°C° 0 mm 1 mps 684 mmHg 57%
    01:00 -1°C° 0 mm 1 mps 684 mmHg 56%
    02:00 -1°C° 0 mm 1 mps 684 mmHg 55%
    03:00 -1°C° 0 mm 1 mps 684 mmHg 55%
    04:00 -1°C° 0 mm 1 mps 684 mmHg 54%
    05:00 -1°C° 0 mm 1 mps 684 mmHg 54%
    06:00 -1°C° 0 mm 1 mps 683 mmHg 54%
    07:00 -1°C° 0 mm 1 mps 684 mmHg 53%
    08:00 -1°C° 0 mm 1 mps 684 mmHg 52%
    09:00 0°C° 0 mm 1 mps 684 mmHg 51%
    10:00 +1°C° 0 mm 1 mps 684 mmHg 54%
    11:00 +1°C° 0 mm 0 mps 684 mmHg 58%
    12:00 +2°C° 0 mm 0 mps 684 mmHg 62%
    13:00 +2°C° 0 mm 0 mps 684 mmHg 61%
    14:00 +3°C° 0 mm 0 mps 683 mmHg 61%
    15:00 +3°C° 0 mm 0 mps 683 mmHg 60%
    16:00 +2°C° 0 mm 0 mps 683 mmHg 61%
    17:00 +1°C° 0 mm 0 mps 683 mmHg 61%
    18:00 -1°C° 0 mm 0 mps 682 mmHg 61%
    19:00 0°C° 0 mm 1 mps 683 mmHg 60%
    20:00 0°C° 0 mm 1 mps 683 mmHg 60%
    21:00 0°C° 0 mm 1 mps 683 mmHg 59%
    22:00 0°C° 0 mm 1 mps 683 mmHg 58%
    23:00 0°C° 0 mm 1 mps 683 mmHg 57%

    22 January, Tuesday

    Time Temperature Precipitation Wind Pressure Humidity
    00:00 0°C° 0 mm 1 mps 683 mmHg 56%
    01:00 0°C° 0 mm 1 mps 683 mmHg 56%
    02:00 0°C° 0 mm 1 mps 683 mmHg 56%
    03:00 0°C° 0 mm 1 mps 683 mmHg 56%
    04:00 0°C° 0 mm 1 mps 683 mmHg 56%
    05:00 0°C° 0 mm 1 mps 683 mmHg 55%
    06:00 -1°C° 0 mm 1 mps 683 mmHg 55%
    07:00 0°C° 0 mm 1 mps 683 mmHg 54%
    08:00 0°C° 0 mm 1 mps 683 mmHg 54%
    09:00 +1°C° 0 mm 1 mps 684 mmHg 53%
    10:00 +2°C° 0 mm 1 mps 684 mmHg 57%
    11:00 +2°C° 0 mm 0 mps 684 mmHg 60%
    12:00 +4°C° 0 mm 0 mps 684 mmHg 63%
    13:00 +4°C° 0 mm 0 mps 683 mmHg 63%
    14:00 +4°C° 0 mm 0 mps 683 mmHg 62%
    15:00 +4°C° 0 mm 0 mps 682 mmHg 62%
    16:00 +3°C° 0 mm 0 mps 682 mmHg 63%
    17:00 +2°C° 0 mm 0 mps 682 mmHg 64%
    18:00 +1°C° 0 mm 0 mps 682 mmHg 66%
    19:00 0°C° 0 mm 0 mps 682 mmHg 65%
    20:00 +1°C° 0 mm 1 mps 682 mmHg 65%
    21:00 +1°C° 0 mm 1 mps 683 mmHg 65%
    22:00 +1°C° 0 mm 1 mps 683 mmHg 65%
    23:00 +1°C° 0 mm 1 mps 683 mmHg 65%
    Show more